GW1985 Weather Reports


time (UTC)temp
C
wind
direction
speed
KPH
gust
KPH
rain 1hr
cm
rain 24hr
cm
rain mn
cm
humidity
%
barometer
mb
20260504070351 13 197 0.0 0.0 0.00 0.00 0.00 50 1000.2
20260504050738 12 189 0.0 0.0 0.00 0.00 0.00 53 1003.0
20260504050235 12 189 0.0 0.0 0.00 0.00 0.00 53 1003.0
20260504045732 12 186 0.0 0.0 0.00 0.00 0.00 53 1003.1
20260504045227 12 181 0.0 0.0 0.00 0.00 0.00 54 1003.3
20260504044725 12 181 0.0 0.0 0.00 0.00 0.00 53 1003.2
20260504044222 12 183 0.0 0.0 0.00 0.00 0.00 52 1003.0
20260504043720 12 183 0.0 0.0 0.00 0.00 0.00 53 1003.2
20260504043216 12 184 0.0 0.0 0.00 0.00 0.00 53 1003.5
20260504042714 12 185 0.0 0.0 0.00 0.00 0.00 53 1003.6
20260504042210 12 183 0.0 0.0 0.00 0.00 0.00 53 1003.7
20260504041706 12 183 0.0 0.0 0.00 0.00 0.00 53 1003.8
20260504041202 12 183 0.0 0.0 0.00 0.00 0.00 53 1003.8
20260504040659 12 182 0.0 0.0 0.00 0.00 0.00 53 1003.9
20260504040156 12 183 0.0 0.0 0.00 0.00 0.00 54 1004.2
20260504035652 12 183 0.0 0.0 0.00 0.00 0.00 54 1004.3
20260504035150 13 183 0.0 0.0 0.00 0.00 0.00 51 1004.1
20260504034647 12 184 0.0 0.0 0.00 0.00 0.00 51 1004.5
20260504034144 12 197 0.0 0.0 0.00 0.00 0.00 53 1004.5
20260504033642 12 223 0.0 0.0 0.00 0.00 0.00 54 1004.7
20260504033139 12 224 0.0 0.0 0.00 0.00 0.00 51 1004.7
20260504032635 12 224 0.0 0.0 0.00 0.00 0.00 51 1005.0
20260504032133 12 224 0.0 0.0 0.00 0.00 0.00 52 1005.0
20260504031630 12 224 0.0 0.0 0.00 0.00 0.00 50 1004.9
20260504031126 12 224 0.0 0.0 0.00 0.00 0.00 50 1004.9
20260504030623 13 224 0.0 0.0 0.00 0.00 0.00 49 1005.1
20260504030120 13 224 0.0 0.0 0.00 0.00 0.00 47 1005.1
20260504025616 13 224 0.0 0.0 0.00 0.00 0.00 47 1005.1
20260504025113 13 224 0.0 0.0 0.00 0.00 0.00 46 1005.3
20260504024611 14 224 0.0 0.0 0.00 0.00 0.00 46 1005.3
20260504024107 14 224 0.0 0.0 0.00 0.00 0.00 45 1005.3
20260504023604 15 224 0.0 0.0 0.00 0.00 0.00 44 1005.3
20260504023059 15 224 0.0 0.0 0.00 0.00 0.00 42 1005.4
20260504022556 16 224 0.0 0.0 0.00 0.00 0.00 40 1005.2
20260504022052 16 224 0.0 0.0 0.00 0.00 0.00 40 1005.3
20260504021550 16 224 0.0 0.0 0.00 0.00 0.00 40 1005.3
20260504021046 16 224 0.0 0.0 0.00 0.00 0.00 40 1005.3
20260504020543 16 224 0.0 0.0 0.00 0.00 0.00 39 1005.4
20260504020040 16 225 0.0 0.0 0.00 0.00 0.00 39 1005.5
20260504015537 17 225 0.0 0.0 0.00 0.00 0.00 38 1005.3
20260504015032 17 220 0.0 0.0 0.00 0.00 0.00 38 1005.4
20260504014529 17 218 0.0 0.0 0.00 0.00 0.00 38 1005.6
20260504014026 17 226 0.0 0.0 0.00 0.00 0.00 38 1005.5
20260504013523 17 226 0.0 0.0 0.00 0.00 0.00 37 1005.5
20260504013020 17 226 0.0 0.0 0.00 0.00 0.00 36 1005.4
20260504012518 17 226 1.6 1.6 0.00 0.00 0.00 35 1005.4
20260504012016 18 207 3.2 3.2 0.00 0.00 0.00 35 1005.5
20260504011512 18 236 0.0 0.0 0.00 0.00 0.00 34 1005.6
20260504011008 18 224 1.6 3.2 0.00 0.00 0.00 34 1005.7
20260504010504 18 225 1.6 3.2 0.00 0.00 0.00 33 1005.6
20260504010000 18 206 0.0 0.0 0.00 0.00 0.00 33 1005.5
20260504005457 19 205 0.0 0.0 0.00 0.00 0.00 34 1005.6
20260504004954 19 237 0.0 0.0 0.00 0.00 0.00 32 1005.6
20260504004452 19 234 0.0 0.0 0.00 0.00 0.00 33 1005.7
20260504003949 19 219 0.0 0.0 0.00 0.00 0.00 33 1005.6
20260504003445 19 213 0.0 0.0 0.00 0.00 0.00 32 1005.7
20260504002942 19 259 0.0 0.0 0.00 0.00 0.00 32 1005.8
20260504002439 20 270 4.8 4.8 0.00 0.00 0.00 30 1005.7
20260504001936 20 225 3.2 3.2 0.00 0.00 0.00 30 1005.8
20260504001433 20 281 4.8 9.7 0.00 0.00 0.00 30 1006.0
20260504000930 20 268 4.8 8.0 0.00 0.00 0.00 31 1005.8
20260504000427 20 253 0.0 0.0 0.00 0.00 0.00 32 1005.6
20260503235924 20 225 4.8 4.8 0.00 0.00 0.00 30 1006.0
20260503235422 20 283 8.0 9.7 0.00 0.00 0.00 30 1005.9
20260503234919 20 264 8.0 11.3 0.00 0.00 0.00 29 1006.1
20260503234417 20 294 6.4 9.7 0.00 0.00 0.00 29 1006.0
20260503233915 20 239 8.0 9.7 0.00 0.00 0.00 29 1006.2
20260503233411 20 251 8.0 11.3 0.00 0.00 0.00 29 1006.0
20260503232908 20 280 6.4 8.0 0.00 0.00 0.00 29 1006.0
20260503232405 20 308 6.4 9.7 0.00 0.00 0.00 30 1005.9
20260503231902 21 274 9.7 12.9 0.00 0.00 0.00 29 1006.0
20260503231400 21 210 6.4 9.7 0.00 0.00 0.00 29 1006.1
20260503230855 21 239 3.2 4.8 0.00 0.00 0.00 30 1006.0
20260503230352 21 301 6.4 11.3 0.00 0.00 0.00 28 1005.9
20260503225850 21 251 4.8 9.7 0.00 0.00 0.00 29 1006.2
20260503225346 21 265 4.8 8.0 0.00 0.00 0.00 29 1006.3
20260503224842 20 253 8.0 11.3 0.00 0.00 0.00 29 1006.2
20260503224339 21 308 11.3 16.1 0.00 0.00 0.00 29 1006.2
20260503223837 21 350 6.4 9.7 0.00 0.00 0.00 29 1006.4
20260503223335 20 281 4.8 8.0 0.00 0.00 0.00 28 1006.5
20260503222830 21 324 11.3 14.5 0.00 0.00 0.00 28 1006.2
20260503222329 21 254 0.0 1.6 0.00 0.00 0.00 29 1006.3
20260503221826 21 292 3.2 11.3 0.00 0.00 0.00 30 1006.4
20260503221325 21 254 6.4 8.0 0.00 0.00 0.00 28 1006.5
20260503220821 20 325 8.0 11.3 0.00 0.00 0.00 28 1006.3
20260503220318 21 263 4.8 4.8 0.00 0.00 0.00 29 1006.4
20260503215814 21 297 3.2 11.3 0.00 0.00 0.00 29 1006.6
20260503215312 20 290 11.3 12.9 0.00 0.00 0.00 28 1006.7
20260503214810 21 301 8.0 9.7 0.00 0.00 0.00 28 1006.6
20260503214306 20 323 6.4 11.3 0.00 0.00 0.00 28 1006.7
20260503213804 20 282 16.1 20.9 0.00 0.00 0.00 27 1006.6
20260503213301 20 292 0.0 0.0 0.00 0.00 0.00 28 1006.8
20260503212758 20 299 8.0 11.3 0.00 0.00 0.00 29 1007.0
20260503212256 20 294 9.7 11.3 0.00 0.00 0.00 29 1007.0
20260503211753 21 270 14.5 16.1 0.00 0.00 0.00 28 1006.9
20260503211249 20 255 3.2 8.0 0.00 0.00 0.00 31 1006.9
20260503210744 20 347 3.2 3.2 0.00 0.00 0.00 31 1006.7
20260503210242 20 250 4.8 4.8 0.00 0.00 0.00 30 1007.1
20260503205742 20 350 11.3 14.5 0.00 0.00 0.00 29 1006.9
20260503205239 21 332 8.0 11.3 0.00 0.00 0.00 29 1007.3
20260503204735 20 236 0.0 0.0 0.00 0.00 0.00 32 1007.1
20260503204233 20 292 0.0 1.6 0.00 0.00 0.00 31 1007.2
20260503203730 21 354 8.0 11.3 0.00 0.00 0.00 28 1007.2
20260503203228 20 232 1.6 3.2 0.00 0.00 0.00 29 1007.2
20260503202725 21 316 9.7 11.3 0.00 0.00 0.00 29 1007.1
20260503202223 20 300 0.0 0.0 0.00 0.00 0.00 30 1007.2
20260503201720 20 277 8.0 9.7 0.00 0.00 0.00 34 1007.2
20260503201218 20 256 4.8 4.8 0.00 0.00 0.00 33 1007.3
20260503200714 20 315 8.0 11.3 0.00 0.00 0.00 36 1007.2
20260503200210 20 275 14.5 17.7 0.00 0.00 0.00 33 1007.6
20260503195707 20 210 0.0 1.6 0.00 0.00 0.00 33 1007.5
20260503195204 20 271 8.0 11.3 0.00 0.00 0.00 34 1007.4
20260503194701 20 329 8.0 11.3 0.00 0.00 0.00 34 1007.8
20260503194156 19 325 4.8 8.0 0.00 0.00 0.00 34 1007.9
20260503193653 20 256 6.4 9.7 0.00 0.00 0.00 34 1007.8
20260503193149 20 216 9.7 12.9 0.00 0.00 0.00 32 1007.7
20260503192645 19 315 17.7 24.1 0.00 0.00 0.00 32 1008.0
20260503192141 20 338 14.5 16.1 0.00 0.00 0.00 33 1008.0
20260503191638 19 27 6.4 9.7 0.00 0.00 0.00 34 1007.9
20260503191135 20 0 4.8 8.0 0.00 0.00 0.00 33 1008.0
20260503190632 18 289 12.9 16.1 0.00 0.00 0.00 35 1007.8
20260503190129 19 256 16.1 22.5 0.00 0.00 0.00 34 1008.1
20260503185625 19 323 0.0 0.0 0.00 0.00 0.00 35 1007.9
20260503185120 20 15 8.0 12.9 0.00 0.00 0.00 33 1008.2
20260503184616 19 218 8.0 11.3 0.00 0.00 0.00 33 1008.0
20260503184113 19 346 9.7 14.5 0.00 0.00 0.00 32 1008.1
20260503183609 19 327 11.3 14.5 0.00 0.00 0.00 31 1008.1
20260503183107 19 301 24.1 35.4 0.00 0.00 0.00 34 1008.1
20260503182605 18 296 8.0 9.7 0.00 0.00 0.00 38 1008.1
20260503182102 19 335 11.3 20.9 0.00 0.00 0.00 36 1008.0
20260503181559 18 276 9.7 14.5 0.00 0.00 0.00 37 1008.1
20260503181056 18 318 9.7 11.3 0.00 0.00 0.00 35 1008.3
20260503180553 19 320 17.7 24.1 0.00 0.00 0.00 38 1008.5
20260503180050 18 335 11.3 12.9 0.00 0.00 0.00 41 1008.2
20260503175547 18 245 8.0 12.9 0.00 0.00 0.00 40 1008.5
20260503175045 18 347 11.3 12.9 0.00 0.00 0.00 37 1008.5
20260503174542 18 10 4.8 8.0 0.00 0.00 0.00 41 1008.5
20260503174038 18 302 9.7 16.1 0.00 0.00 0.00 42 1008.6
20260503173533 18 266 14.5 17.7 0.00 0.00 0.00 42 1008.3
20260503173029 18 332 16.1 20.9 0.00 0.00 0.00 42 1008.5
20260503172527 18 338 20.9 24.1 0.00 0.00 0.00 42 1008.6
20260503172024 18 268 8.0 11.3 0.00 0.00 0.00 43 1008.3
20260503171521 18 285 11.3 16.1 0.00 0.00 0.00 43 1008.3
20260503171018 18 338 16.1 20.9 0.00 0.00 0.00 44 1008.5
20260503170514 18 271 11.3 16.1 0.00 0.00 0.00 45 1008.5
20260503150907 16 276 17.7 24.1 0.00 0.00 0.00 51 1008.2
20260503150403 16 334 4.8 9.7 0.00 0.00 0.00 51 1008.3
20260503131256 13 290 11.3 14.5 0.00 0.00 0.00 59 1007.3
20260503130754 12 275 8.0 12.9 0.00 0.00 0.00 59 1007.3
20260503130251 12 296 8.0 11.3 0.00 0.00 0.00 60 1007.1
20260503120217 11 257 0.0 0.0 0.00 0.00 0.00 61 1006.5
20260503110644 10 196 0.0 0.0 0.00 0.00 0.00 61 1005.7
20260503110142 10 191 0.0 0.0 0.00 0.00 0.00 60 1005.8
20260503100109 12 189 3.2 3.2 0.00 0.00 0.00 54 1006.0
20260503081458 13 179 1.6 3.2 0.00 0.00 0.00 53 1006.5
20260503080955 13 172 0.0 0.0 0.00 0.00 0.00 53 1006.6
20260503080451 13 194 0.0 0.0 0.00 0.00 0.00 54 1006.7